Location: Lecco
(45.8566°N, 9.3977°E)
Time: 04:53:17
(UTC+02:00)

Transit 4A - Pass Details

Date: 19 August 2020
Orbit: 863 x 982 km, 66.8° (Epoch: 23 September)

Event Time Altitude Azimuth Distance (km) Brightness Sun altitude
Rises 17:48:52 0° 323° (NW) 3,666 11.4 25.7°
Reaches altitude 10° 17:51:29 10° 319° (NW) 2,726 10.9 25.3°
Maximum altitude 17:57:39 52° 245° (WSW) 1,205 9.8 24.2°
Drops below altitude 10° 18:03:48 10° 171° (S) 2,724 10.4 23.2°
Sets 18:06:25 0° 167° (SSE) 3,663 10.9 22.7°
